Location: Zagreb
(45.8000°N, 16.0000°E)
Time: 08:35:41
(UTC+02:00)

Courier 1B - Pass Details

Date: 16 August 2020
Orbit: 962 x 1209 km, 28.3° (Epoch: 27 September)

Event Time Altitude Azimuth Distance (km) Brightness Sun altitude
Rises 19:20:23 0° 242° (WSW) 4,061 11.6 6.1°
Reaches altitude 10° 19:24:09 10° 226° (SW) 3,065 10.6 5.5°
Maximum altitude 19:29:13 19° 184° (S) 2,380 9.5 4.6°
Drops below altitude 10° 19:34:06 10° 141° (SE) 2,947 9.6 3.8°
Sets 19:37:37 0° 125° (SE) 3,855 10.0 3.2°
